Weather History for LGKO - January, 2013

Change the Weather History Date:

Sunday, January 27, 2013

  Actual Average Record
Temperature  
Mean Temperature 54 °F -  
Max Temperature 57 °F 54 °F 64 °F (2005)
Min Temperature 51 °F 46 °F 33 °F (2000)
Degree Days  
Heating Degree Days 11    
Growing Degree Days 4 (Base 50)    
Moisture  
Dew Point 46 °F    
Average Humidity 73    
Maximum Humidity 82    
Minimum Humidity 63    
Precipitation  
Precipitation 0.00 in - - ()
Sea Level Pressure  
Sea Level Pressure 29.77 in    
Wind  
Wind Speed 8 mph ()    
Max Wind Speed 13 mph    
Max Gust Speed -    
Visibility 6.2 miles    
Events Rain , Thunderstorm    
Averages and records for this station are not official NWS values.
T = Trace of Precipitation, MM = Missing Value Source: Averaged Metar Reports

Daily Weather History Graph

Daily Weather History Graph

Search for Another Location

Airport or City:

Trip Planner

Search our weather history database for the weather conditions in past years. The results will help you decide how hot, cold, wet, or windy it might be!

Date:

Astronomy

Jan. 27, 2013 Rise Set
Actual Time 7:17 AM EET 5:31 PM EET
Civil Twilight 6:49 AM EET 5:59 PM EET
Nautical Twilight 6:18 AM EET 6:30 PM EET
Astronomical Twilight 5:48 AM EET 7:01 PM EET
Moon 6:04 PM EET (1/27) 7:01 AM EET (1/27)
Length of Visible Light 11h 09m
Length of Day
10h 14m
Full, 100% of the Moon is Illuminated
Jan 27
Full
Feb 3
Last Quarter
Feb 10
New
Feb 17
First Quarter
Feb 25
Full

Hourly Weather History & Observations

Time (EET) Temp. Dew Point Humidity Pressure Visibility Wind Dir Wind Speed Gust Speed Precip Events Conditions
12:50 AM 53.6 °F 48.2 °F 82% 29.65 in 6.2 mi WSW 8.1 mph - N/A   Mostly Cloudy
1:50 AM 53.6 °F 46.4 °F 77% 29.65 in 6.2 mi West 12.7 mph - N/A   Mostly Cloudy
2:50 AM 53.6 °F 46.4 °F 77% 29.65 in 6.2 mi West 11.5 mph - N/A   Mostly Cloudy
3:50 AM 53.6 °F 46.4 °F 77% 29.65 in 6.2 mi West 9.2 mph - N/A   Mostly Cloudy
4:50 AM 53.6 °F 46.4 °F 77% 29.68 in 6.2 mi West 11.5 mph - N/A   Mostly Cloudy
5:20 AM 53.6 °F 46.4 °F 77% 29.68 in 6.2 mi West 6.9 mph - N/A   Mostly Cloudy
5:50 AM 53.6 °F 46.4 °F 77% 29.68 in 6.2 mi West 6.9 mph - N/A   Mostly Cloudy
6:50 AM 53.6 °F 46.4 °F 77% 29.68 in 6.2 mi West 6.9 mph - N/A   Mostly Cloudy
7:20 AM 53.6 °F 46.4 °F 77% 29.68 in 6.2 mi West 12.7 mph - N/A   Mostly Cloudy
7:50 AM 53.6 °F 46.4 °F 77% 29.71 in 6.2 mi WSW 9.2 mph - N/A   Scattered Clouds
8:20 AM 53.6 °F 46.4 °F 77% 29.71 in 6.2 mi SW 10.4 mph - N/A   Scattered Clouds
8:50 AM 55.4 °F 42.8 °F 63% 29.74 in 6.2 mi SW 10.4 mph - N/A   Scattered Clouds
9:20 AM 55.4 °F 42.8 °F 63% 29.74 in 6.2 mi WSW 11.5 mph - N/A Thunderstorm Thunderstorm
9:50 AM 55.4 °F 46.4 °F 72% 29.77 in 6.2 mi WSW 10.4 mph - N/A Thunderstorm Thunderstorm
10:20 AM 55.4 °F 46.4 °F 72% 29.77 in 6.2 mi WSW 10.4 mph - N/A   Scattered Clouds
10:50 AM 55.4 °F 44.6 °F 67% 29.80 in 6.2 mi West 8.1 mph - N/A   Scattered Clouds
11:20 AM 55.4 °F 44.6 °F 67% 29.80 in 6.2 mi West 10.4 mph - N/A   Mostly Cloudy
11:50 AM 55.4 °F 46.4 °F 72% 29.80 in 6.2 mi West 10.4 mph - N/A   Scattered Clouds
12:20 PM 55.4 °F 46.4 °F 72% 29.80 in 6.2 mi West 10.4 mph - N/A   Scattered Clouds
12:50 PM 57.2 °F 46.4 °F 67% 29.80 in 6.2 mi WNW 11.5 mph - N/A   Scattered Clouds
1:20 PM 57.2 °F 46.4 °F 67% 29.80 in 6.2 mi WNW 11.5 mph - N/A   Scattered Clouds
1:50 PM 57.2 °F 44.6 °F 63% 29.80 in 6.2 mi WNW 11.5 mph - N/A   Scattered Clouds
2:20 PM 57.2 °F 44.6 °F 63% 29.80 in 6.2 mi WNW 10.4 mph - N/A   Scattered Clouds
2:50 PM 55.4 °F 44.6 °F 67% 29.80 in 6.2 mi NW 8.1 mph - N/A   Scattered Clouds
3:20 PM 55.4 °F 44.6 °F 67% 29.80 in 6.2 mi NW 8.1 mph - N/A   Scattered Clouds
3:50 PM 55.4 °F 44.6 °F 67% 29.83 in 6.2 mi NW 9.2 mph - N/A   Scattered Clouds
4:20 PM 55.4 °F 44.6 °F 67% 29.83 in 6.2 mi NW 9.2 mph - N/A   Scattered Clouds
4:50 PM 55.4 °F 44.6 °F 67% 29.83 in 6.2 mi NNW 5.8 mph - N/A   Partly Cloudy
5:20 PM 55.4 °F 44.6 °F 67% 29.83 in 6.2 mi NW 5.8 mph - N/A   Partly Cloudy
5:50 PM 51.8 °F 44.6 °F 76% 29.83 in 6.2 mi WNW 4.6 mph - N/A   Partly Cloudy
6:20 PM 51.8 °F 44.6 °F 76% 29.83 in 6.2 mi NW 4.6 mph - N/A   Partly Cloudy
6:50 PM 51.8 °F 46.4 °F 82% 29.86 in 6.2 mi North 3.5 mph - N/A   Partly Cloudy
7:20 PM 51.8 °F 46.4 °F 82% 29.86 in 6.2 mi North 5.8 mph - N/A   Partly Cloudy
7:50 PM 51.8 °F 46.4 °F 82% 29.86 in 6.2 mi North 5.8 mph - N/A   Scattered Clouds
8:50 PM 51.8 °F 46.4 °F 82% 29.86 in 6.2 mi NE 4.6 mph - N/A   Scattered Clouds
9:50 PM 51.8 °F 46.4 °F 82% 29.86 in 6.2 mi North 8.1 mph - N/A Rain Light Rain
10:50 PM 51.8 °F 46.4 °F 82% 29.86 in 6.2 mi NNE 6.9 mph - N/A   Mostly Cloudy
11:50 PM 51.8 °F 44.6 °F 76% 29.86 in 6.2 mi North 9.2 mph - N/A   Mostly Cloudy